Location: Central Falls
(41.8900°N, 71.3929°W)
Time: 10:46:52
(UTC+00:00)

A-11 Canister half - Pass Details

Date: 05 December 2023
Orbit: 1526 x 1682 km, 47.3° (Epoch: 20 February)

Event Time Altitude Azimuth Distance (km) Brightness Sun altitude
Rises 06:38:22 0° 297° (WNW) 4,892 - -57.8°
Reaches altitude 10° 06:41:42 10° 292° (WNW) 3,884 - -57.3°
Maximum altitude 06:50:55 46° 223° (SW) 2,049 - -55.7°
Drops below altitude 10° 06:59:51 10° 154° (SSE) 3,755 - -54.2°
Exits shadow 07:02:39 - 149° (SSE) 4,599 11.6 -53.7°
Sets 07:03:02 0° 148° (SSE) 4,718 11.6 -53.7°
